SCP
0 0 0 0 0 0 0 0 0 0 0 0 0 0 0 0 0 0 0 0 0 0 0 0 0 0 0 0 0 0 0 0 0 0 0 0 0 0 0 0 0 0 0 0
0 0 0 0 0 0 0 0 0 0 0 0 0 0 0 0 0 0 0 0 0 0 0 0 0 0 0 0 0 0 0 0 0 0 0 0 0 0 0 0 0 0 0 0
0 0 0 0 0 0 0 0 0 0 0 0 0 0 0 0 0 0 0 0 0 0 0 0 0 0 0 0 0 0 0 0 0 0 0 0 0 0 0 0 0 0 0 0
0 0 0 0 0 0 0 0 0 0 0 0 0 0 0 0 0 0 0 0 0 0 0 0 0 0 0 0 0 0 0 0 0 0 0 0 0 0 0 0 0 0 0 0
0 0 0 0 0 0 0 0 0 0 0 0 0 0 0 0 0 0 0 0 0 0 0 0 0 0 0 0 0 0 0 0 0 0 0 0 0 0 0 0 0 0 0 0
0 0 0 0 0 0 0 0 0 0 0 0 0 0 0 0 0 0 0 0 0 0 0 0 0 0 0 0 0 0 0 0 0 0 0 0 0 0 0 0 0 0 0 0
0 0 0 0 0 0 0 0 0 0 0 0 0 0 0 0 0 0 0 0 0 0 0 0 0 0 0 0 0 0 0 0 0 0 0 0 0 0 0 0 0 0 0 0
0 0 0 0 0 0 0 0 0 0 0 0 0 0 0 0 0 0 0 0 0 0 0 0 0 0 0 0 0 0 0 0 0 0 0 0 0 0 0 0 0 0 0 0
0 0 0 0 0 0 0 0 0 0 0 0 0 0 0 0 0 0 0 0 0 0 0 0 0 0 0 0 0 0 0 0 0 0 0 0 0 0 0 0 0 0 0 0
0 0 0 0 0 0 0 0 0 0 0 0 0 0 0 0 0 0 0 0 0 0 0 0 0 0 0 0 0 0 0 0 0 0 0 0 0 0 0 0 0 0 0 0
0 0 0 0 0 0 0 0 0 0 0 0 0 0 0 0 0 0 0 0 0 0 0 0 0 0 0 0 0 0 0 0 0 0 0 0 0 0 0 0 0 0 0 0
0 0 0 0 0 0 0 0 0 0 0 0 0 0 0 0 0 0 0 0 0 0 0 0 0 0 0 0 0 0 0 0 0 0 0 0 0 0 0 0 0 0 0 0
0 0 0 0 0 0 0 0 0 0 0 0 0 0 0 0 0 0 0 0 0 0 0 0 0 0 0 0 0 0 0 0 0 0 0 0 0 0 0 0 0 0 0 0
0 0 0 0 0 0 0 0 0 0 0 0 0 0 0 0 0 0 0 0 0 0 0 0 0 0 0 0 0 0 0 0 0 0 0 0 0 0 0 0 0 0 0 0
0 0 0 0 0 0 0 0 0 0 0 0 0 0 0 0 0 0 0 0 0 0 0 0 0 0 0 0 0 0 0 0 0 0 0 0 0 0 0 0 0 0 0 0
0 0 0 0 0 0 0 0 0 0 0 0 0 0 0 0 0 0 0 0 0 0 0 0 0 0 0 0 0 0 0 0 0 0 0 0 0 0 0 0 0 0 0 0
0 0 0 0 0 0 0 0 0 0 0 0 0 0 0 0 0 0 0 0 0 0 0 0 0 0 0 0 0 0 0 0 0 0 0 0 0 0 0 0 0 0 0 0
0 0 0 0 0 0 0 0 0 0 0 0 0 0 0 0 0 0 0 0 0 0 0 0 0 0 0 0 0 0 0 0 0 0 0 0 0 0 0 0 0 0 0 0
0 0 0 0 0 0 0 0 0 0 0 0 0 0 0 0 0 0 0 0 0 0 0 0 0 0 0 0 0 0 0 0 0 0 0 0 0 0 0 0 0 0 0 0
0 0 0 0 0 0 0 0 0 0 0 0 0 0 0 0 0 0 0 0 0 0 0 0 0 0 0 0 0 0 0 0 0 0 0 0 0 0 0 0 0 0 0 0
0 0 0 0 0 0 0 0 0 0 0 0 0 0 0 0 0 0 0 0 0 0 0 0 0 0 0 0 0 0 0 0 0 0 0 0 0 0 0 0 0 0 0 0
0 0 0 0 0 0 0 0 0 0 0 0 0 0 0 0 0 0 0 0 0 0 0 0 0 0 0 0 0 0 0 0 0 0 0 0 0 0 0 0 0 0 0 0
0 0 0 0 0 0 0 0 0 0 0 0 0 0 0 0 0 0 0 0 0 0 0 0 0 0 0 0 0 0 0 0 0 0 0 0 0 0 0 0 0 0 0 0
0 0 0 0 0 0 0 0 0 0 0 0 0 0 0 0 0 0 0 0 0 0 0 0 0 0 0 0 0 0 0 0 0 0 0 0 0 0 0 0 0 0 0 0
0 0 0 0 0 0 0 0 0 0 0 0 0 0 0 0 0 0 0 0 0 0 0 0 0 0 0 0 0 0 0 0 0 0 0 0 0 0 0 0 0 0 0 0
0 0 0 0 0 0 0 0 0 0 0 0 0 0 0 0 0 0 0 0 0 0 0 0 0 0 0 0 0 0 0 0 0 0 0 0 0 0 0 0 0 0 0 0
Wind_Speed
6 9 13 14 11 3 8 8 7 4 2 5 9 12 12 8 8 11 11 10 10 10 8 6 7 8 10 12 14 15 15 15 12 10 10 9 9 8 8 8 10 11 11 11
7 13 9 7 7 7 8 7 6 3 2 2 5 11 12 10 10 11 12 12 11 9 7 6 5 6 8 10 12 14 15 15 15 12 11 9 9 8 8 8 10 12 12 12
14 6 10 9 9 8 6 8 7 5 3 1 4 9 9 8 6 8 11 11 10 9 8 6 5 5 6 8 10 10 13 13 15 14 9 6 6 5 7 9 8 11 12 12
10 6 9 11 11 11 9 5 7 7 5 3 2 7 6 5 6 9 11 10 9 7 6 5 4 4 4 5 6 8 9 11 11 12 11 12 10 10 11 8 7 9 11 11
10 9 10 12 11 10 5 6 6 4 4 3 5 7 8 3 8 11 10 7 5 3 3 2 2 2 2 2 3 5 7 7 9 10 12 12 11 9 6 6 6 7 7 9
4 4 4 6 5 7 11 9 7 4 3 8 8 10 10 7 9 6 5 4 3 2 2 2 1 1 1 1 1 2 4 5 6 8 9 10 10 8 6 5 5 4 4 4
5 3 2 5 9 6 8 9 5 5 6 8 4 9 12 7 7 5 4 3 2 2 3 3 3 3 3 3 3 3 4 4 4 4 5 5 6 6 5 5 4 4 3 3
14 10 11 8 8 12 12 13 10 9 8 5 4 12 10 3 4 5 5 4 3 3 3 3 3 3 3 4 4 4 5 5 4 4 4 3 2 2 1 1 1 1 1 1
15 11 4 5 2 12 12 9 4 5 3 2 8 9 10 6 7 7 6 6 6 5 4 4 4 4 4 4 4 5 6 6 5 5 5 4 4 3 3 2 2 1 1 1
9 9 5 4 4 2 4 10 6 7 7 8 9 10 8 6 10 10 9 8 7 6 6 5 5 5 5 5 5 6 6 6 6 5 5 4 5 4 4 3 3 2 2 2
6 9 5 6 13 14 9 8 7 8 6 8 8 10 6 10 10 10 9 8 8 8 7 6 5 5 5 5 5 6 6 6 6 5 5 6 5 5 5 4 3 3 2 2
6 7 6 7 1 3 8 12 13 10 8 7 7 10 2 5 5 5 7 7 8 8 7 6 6 6 5 5 5 5 5 5 5 5 6 6 5 5 5 4 4 3 2 2
10 9 7 3 4 5 8 7 10 5 5 7 9 11 2 2 4 5 7 8 8 8 8 7 6 6 6 5 5 5 5 5 5 5 6 6 5 5 4 4 3 3 3 2
7 7 10 16 10 12 10 11 12 10 8 11 19 18 6 6 6 7 8 9 9 9 8 8 7 6 6 5 5 5 5 5 5 5 6 5 4 4 4 3 3 3 3 3
6 7 7 7 4 9 12 16 19 20 20 18 21 23 17 12 11 10 10 10 11 11 11 10 9 8 7 6 6 5 5 5 5 5 6 5 4 4 3 3 3 3 3 3
7 6 6 4 5 7 8 15 22 24 22 25 22 23 10 9 8 9 11 13 14 14 13 12 10 9 8 7 6 6 5 5 5 6 5 4 4 4 3 3 3 3 3 3
8 7 7 6 5 3 13 19 20 18 18 18 25 25 6 10 13 14 15 16 17 15 14 13 12 10 9 7 7 6 6 5 5 5 5 4 3 3 3 3 3 3 3 3
10 7 4 5 7 14 12 7 16 20 21 21 17 11 11 14 13 11 13 15 16 14 14 13 11 10 9 7 7 6 6 5 6 5 4 4 3 3 3 3 3 3 3 3
9 9 6 6 10 12 8 6 11 15 18 18 21 19 11 4 2 7 8 11 13 13 11 11 10 10 9 8 7 7 6 5 5 4 4 3 3 3 3 3 3 3 3 4
7 7 7 7 9 13 7 6 7 7 13 9 14 17 11 9 10 10 8 9 10 11 11 11 11 10 9 7 7 7 6 5 4 3 3 3 3 2 3 3 3 3 3 4
11 8 12 11 10 10 3 5 10 11 9 2 8 10 11 12 8 4 10 10 11 12 12 12 11 9 7 7 7 7 6 4 3 2 2 2 3 3 3 3 3 4 4 4
14 11 12 10 12 13 7 10 12 5 1 1 2 3 6 5 6 9 11 12 13 13 12 12 11 8 6 6 7 7 5 3 2 2 2 2 3 3 3 3 4 4 4 5
10 9 7 10 9 1 7 6 3 3 3 2 2 3 7 8 8 10 11 12 12 12 11 9 10 9 6 5 5 6 4 3 2 2 2 2 3 3 3 4 4 4 4 4
4 1 4 4 5 2 3 1 2 2 2 2 3 5 8 8 10 10 10 10 10 9 9 8 10 9 6 5 5 5 4 2 1 1 2 2 3 3 3 3 3 4 4 5
6 8 5 5 2 1 4 6 5 3 2 3 3 4 7 10 11 11 10 10 9 8 7 7 8 8 7 6 5 4 3 2 2 2 2 3 3 4 4 4 4 5 5 6
6 8 9 8 7 7 5 5 6 6 6 7 7 5 5 8 11 11 10 9 8 8 7 7 7 7 6 5 4 3 3 2 2 2 2 2 3 3 4 5 5 7 8 11
Wind_Direction
159 188 198 193 197 185 168 173 182 174 116 206 229 248 254 246 246 250 246 242 241 243 247 235 226 221 221 219 217 215 214 211 207 204 205 207 210 208 207 208 210 205 202 200
166 209 195 157 143 127 153 169 170 132 83 225 254 263 262 250 243 242 244 243 242 241 234 227 224 216 217 219 219 218 215 213 209 210 210 213 214 212 209 207 212 210 206 203
193 176 154 148 157 158 175 188 179 161 132 124 294 265 245 240 237 247 244 246 250 248 249 245 236 228 222 222 222 219 217 214 213 212 210 205 207 206 207 211 213 214 211 208
198 151 162 170 182 180 201 192 161 154 184 216 250 270 252 238 258 246 240 232 236 239 243 243 240 234 232 238 234 226 220 216 214 210 210 208 209 215 218 214 212 212 214 215
189 165 169 189 188 174 150 125 132 151 181 238 214 254 262 237 253 244 232 220 218 223 219 214 225 247 260 259 232 216 209 208 208 209 212 214 220 224 223 213 209 210 211 217
130 167 191 172 119 136 129 106 85 91 178 245 219 226 260 215 220 222 203 186 180 172 166 155 128 119 90 83 122 160 168 175 190 199 208 214 219 217 213 207 208 208 210 216
153 168 145 133 118 130 166 149 155 183 210 234 157 229 251 228 227 227 222 206 191 174 172 153 137 118 99 90 94 113 126 126 144 165 184 201 210 212 212 211 212 208 210 217
182 193 190 184 168 167 188 188 185 192 208 212 186 236 252 244 262 255 253 239 209 192 169 151 135 119 106 95 96 107 112 111 116 129 137 139 148 153 153 154 158 172 189 219
190 191 136 176 166 159 171 202 181 129 110 228 228 251 279 253 251 238 226 206 196 178 163 150 136 123 114 107 99 104 108 105 102 106 109 105 102 107 109 102 95 92 67 27
164 166 151 150 127 1 196 153 147 173 176 226 246 243 240 200 216 211 202 194 182 165 158 150 140 129 117 111 107 104 104 103 100 98 96 93 93 92 93 90 84 75 60 45
153 145 140 172 197 182 152 173 183 183 199 205 241 249 215 208 204 201 194 182 174 167 161 155 142 130 121 115 112 108 107 106 102 100 100 97 91 87 85 79 72 63 55 42
158 140 162 198 184 270 206 193 180 185 205 214 237 257 120 222 218 198 184 174 168 164 159 153 145 137 131 125 118 114 112 108 104 103 99 93 90 89 85 78 69 62 57 44
154 144 135 160 198 193 217 209 206 189 163 189 218 249 97 172 195 197 186 173 168 166 160 155 151 150 144 136 129 122 118 113 110 107 103 96 90 85 80 73 63 54 50 44
145 159 192 208 203 181 195 201 197 187 200 219 231 244 222 201 200 195 189 181 175 173 170 167 163 158 150 143 137 131 121 115 114 109 102 92 81 75 71 64 55 45 37 32
159 191 207 227 189 175 197 202 201 210 219 226 239 243 238 216 210 203 189 180 181 183 183 180 173 164 156 149 143 132 119 111 110 105 95 87 79 71 66 57 44 35 30 22
176 181 175 207 202 199 217 216 212 218 227 235 247 251 239 214 209 205 196 192 194 193 190 183 175 167 162 156 147 134 118 106 102 96 88 79 74 67 55 42 31 25 20 10
170 153 168 201 158 162 236 222 215 221 224 229 240 249 201 207 209 210 204 201 201 196 189 183 177 170 161 155 147 135 121 111 100 91 80 66 59 55 41 27 22 12 0 350
166 158 163 154 158 223 238 201 209 222 232 230 241 249 216 221 219 217 208 202 202 194 185 178 169 158 148 140 133 122 114 106 98 88 73 53 43 36 24 19 9 354 342 332
178 166 170 188 217 248 255 199 195 210 237 230 237 243 231 200 210 237 216 205 200 186 172 161 152 144 139 136 132 124 111 102 92 81 66 43 27 14 6 359 346 338 328 319
185 174 180 194 213 233 237 175 173 173 248 227 225 237 219 171 221 234 177 176 161 147 144 141 137 132 132 131 132 124 116 104 87 64 44 26 12 355 342 331 324 318 309 300
183 190 205 211 227 249 217 155 150 187 238 201 212 222 201 203 225 137 137 141 140 137 136 134 131 127 128 132 130 120 112 97 75 49 34 24 2 337 325 319 312 308 304 300
186 192 202 203 222 236 158 159 186 204 106 159 189 196 181 164 116 130 138 140 140 137 136 134 128 120 114 121 125 118 109 90 66 43 28 8 346 333 325 315 308 304 300 297
202 195 188 200 219 159 166 186 184 146 166 176 167 154 144 138 144 144 143 143 141 138 136 132 129 120 104 91 110 120 105 77 55 37 15 349 337 327 322 311 308 304 298 293
223 184 176 212 232 197 200 208 202 189 180 167 162 155 154 151 151 147 145 144 142 139 137 135 133 129 121 103 89 93 88 69 62 32 1 346 332 325 325 310 300 296 294 292
186 173 187 221 220 188 235 219 201 178 161 147 146 157 162 151 153 155 153 152 149 141 136 137 139 136 130 120 104 84 68 59 52 27 352 337 328 323 316 306 290 287 275 272
188 184 190 211 191 189 205 197 181 177 187 181 163 154 158 161 159 156 153 151 147 143 138 133 129 127 125 122 109 84 57 48 40 6 345 331 320 316 310 309 303 286 284 290